Theta_e
306 303 303 302 302 304 305 305 305 307 311 311 312 310 310 311 313 313 313 313 312 312 312 313 313 314 314 314 313 316 315 317 316 318 321 320 321 320 319 319 321 320 320 320 322 327 327 327 327 331 328 328 328 328
306 304 304 302 302 303 304 304 305 305 308 311 311 310 311 310 311 312 313 313 313 311 312 312 313 313 313 313 313 314 314 315 317 315 317 317 320 319 319 323 319 323 321 324 323 323 324 327 325 325 327 328 328 328
306 305 304 303 302 303 304 304 305 305 305 309 311 311 311 311 309 311 312 313 313 311 311 313 315 315 314 314 314 314 315 316 317 317 318 315 320 317 320 319 321 319 322 320 320 321 323 322 322 324 326 326 327 328
306 306 304 303 302 304 304 304 305 305 305 307 310 311 310 310 309 311 311 312 313 311 311 313 313 314 314 314 315 316 317 317 316 316 319 317 319 317 317 317 318 318 318 318 317 318 320 322 323 323 322 323 324 327
306 305 304 302 303 304 304 304 305 305 305 306 310 310 310 310 309 311 312 312 313 312 312 313 313 316 316 317 318 317 315 315 315 318 317 315 316 316 314 313 314 317 316 316 318 318 319 321 320 321 322 323 324 324
306 304 302 302 303 304 304 304 305 304 304 305 310 310 310 309 310 311 314 314 314 314 313 312 312 315 318 319 319 317 317 317 315 318 317 318 319 318 319 317 316 317 317 318 317 319 320 319 318 318 321 323 323 324
304 302 302 303 303 304 304 305 306 304 305 309 310 310 310 309 310 311 312 315 313 314 312 311 310 313 315 317 319 318 317 317 317 318 317 316 317 318 318 318 317 317 317 317 317 317 316 318 318 318 320 322 323 323
302 302 303 303 303 303 306 309 306 307 310 311 311 309 309 310 312 313 315 313 313 314 312 312 310 312 316 316 316 317 318 318 318 317 317 316 316 316 319 317 318 320 320 321 321 321 320 320 320 320 321 322 323 323
303 303 303 303 303 304 307 307 310 311 312 310 309 310 313 314 314 316 316 315 314 314 313 313 311 310 315 316 316 315 316 312 316 317 317 317 316 319 317 316 316 316 317 318 318 319 321 321 322 322 322 323 324 324
303 303 303 303 304 305 308 309 312 310 310 310 312 315 315 317 318 315 314 313 313 314 313 311 312 310 314 315 314 314 314 311 315 315 316 316 314 315 316 316 317 317 316 317 317 318 319 320 321 323 322 322 321 322
303 303 303 303 306 307 309 312 310 314 316 316 315 316 315 314 313 314 316 314 313 313 312 311 312 309 313 313 313 314 312 314 316 315 317 318 318 316 316 316 317 317 318 318 318 318 320 321 321 322 322 322 322 323
303 304 303 306 308 308 311 312 309 311 314 314 313 312 312 313 315 316 316 315 314 313 314 313 314 313 314 316 315 314 315 314 318 315 317 318 315 316 316 318 318 318 319 320 321 321 320 321 321 322 322 322 322 323
303 304 305 309 308 310 312 311 308 310 310 311 312 314 315 315 315 317 316 315 313 314 316 316 315 317 316 316 313 313 315 316 314 316 318 317 315 316 317 318 318 318 318 318 318 320 320 320 321 321 320 321 322 323
303 304 308 312 311 311 313 310 307 310 310 312 314 312 315 316 313 312 313 314 316 316 316 316 317 316 315 313 313 316 314 314 317 314 315 313 315 315 317 318 319 320 318 318 317 318 319 320 320 320 319 319 320 322
305 305 311 309 309 309 308 308 309 311 310 313 315 312 313 315 316 317 317 317 317 316 314 312 311 315 310 312 310 314 316 314 313 313 312 315 316 314 317 319 318 319 318 318 318 318 319 321 321 320 319 319 319 322
305 310 310 310 311 312 312 311 309 309 311 312 314 314 317 316 316 317 317 315 315 316 313 314 312 311 311 310 314 315 313 313 313 311 314 316 314 314 317 318 317 317 318 317 319 318 318 318 321 322 321 322 323 324
305 311 311 312 313 312 311 310 310 311 312 315 316 316 316 315 316 318 318 317 316 315 313 311 314 313 308 311 313 311 313 312 313 314 315 316 314 313 315 317 319 318 317 317 318 317 317 318 319 322 323 322 320 321
305 310 311 311 311 312 312 311 312 315 316 316 317 316 317 318 318 318 318 317 315 315 315 313 312 310 310 312 311 310 313 312 314 315 315 314 314 313 315 317 317 319 320 318 319 317 319 317 318 316 319 317 319 322
305 309 310 310 311 311 311 314 313 314 316 318 318 317 318 317 317 317 317 316 314 315 317 315 311 309 308 310 312 313 313 314 314 314 313 313 314 313 315 315 316 318 319 319 319 318 317 319 319 316 316 316 318 319
307 308 310 310 310 310 313 315 316 317 317 317 317 317 317 318 318 318 317 315 315 316 314 312 311 312 312 314 315 314 314 313 313 313 313 313 314 313 315 315 315 315 317 317 318 318 318 318 319 319 319 319 319 320
310 311 311 311 311 310 311 312 316 318 318 318 318 319 319 319 319 317 315 315 316 316 313 314 315 315 315 315 314 314 313 313 313 312 312 312 313 313 314 315 315 314 313 315 316 316 316 317 318 318 318 318 318 318
312 313 313 314 313 314 315 315 314 316 316 318 318 317 317 317 317 316 315 317 317 315 315 316 315 315 314 312 312 311 312 312 312 311 312 312 313 312 313 313 313 313 313 313 313 314 315 314 314 314 315 316 317 318
312 313 313 314 316 316 316 317 318 318 316 317 318 318 317 316 315 316 316 316 317 317 316 315 314 311 311 311 311 311 312 312 312 312 312 312 312 312 313 313 313 313 312 313 313 313 313 314 314 314 313 313 314 316
312 314 315 316 316 314 315 317 318 318 318 317 316 318 317 317 317 314 314 316 316 314 310 309 310 311 311 311 311 312 312 312 312 312 312 312 313 313 313 313 312 312 312 313 313 313 312 312 312 312 313 313 313 313
314 314 313 313 315 316 316 318 318 317 316 315 317 317 318 318 314 312 312 313 316 311 311 311 312 312 312 312 311 311 312 312 312 312 312 312 312 312 312 312 312 312 312 312 312 312 312 312 312 313 313 313 313 313
312 312 313 315 315 315 317 319 319 318 317 317 317 317 318 314 315 313 311 314 315 314 312 312 313 314 314 313 313 312 310 311 312 312 312 312 312 312 312 312 312 312 312 312 312 312 312 311 312 312 311 311 312 312
308 310 313 314 314 316 317 319 319 318 319 320 316 316 317 318 317 314 315 314 315 315 313 312 313 313 313 312 312 313 313 312 312 312 312 311 312 312 312 312 311 311 311 311 312 311 310 311 312 312 311 312 311 311
314 314 313 315 316 317 317 318 320 320 317 317 315 316 318 318 314 318 315 314 315 314 313 313 313 313 313 312 312 311 312 313 313 312 311 311 311 311 312 311 311 310 310 309 310 310 309 310 311 311 310 309 310 310
313 315 315 315 316 318 319 319 319 319 319 318 317 317 318 317 316 315 314 314 313 313 313 313 312 312 313 312 312 312 312 311 311 311 310 311 311 311 312 312 310 308 309 308 307 306 307 307 307 307 307 307 308 308
313 313 316 316 316 316 318 319 320 319 320 320 319 319 317 318 315 313 312 312 312 312 312 312 313 312 312 312 312 312 312 312 312 312 311 309 310 310 311 311 310 309 310 309 308 307 307 307 307 307 308 308 307 307
315 315 315 315 316 315 316 318 319 320 319 319 319 318 318 317 316 313 312 311 312 312 312 312 312 313 313 312 312 312 312 312 312 311 311 312 309 309 308 310 310 309 309 309 308 308 307 307 307 307 308 307 306 307
315 314 314 313 315 317 319 320 319 319 318 318 318 318 318 317 316 316 313 312 312 312 313 312 312 312 313 313 313 313 312 312 312 311 309 309 309 309 309 309 309 307 307 307 308 308 307 307 308 308 309 308 307 306
319 318 316 316 316 318 320 321 320 320 320 320 320 319 319 318 318 319 318 315 313 312 312 312 312 312 312 313 312 312 312 312 312 311 310 309 310 309 309 309 308 308 308 308 308 308 308 307 308 307 307 307 308 308
Wind_Speed
14 15 16 16 16 15 14 13 12 10 10 10 9 11 12 11 14 16 14 11 8 5 14 7 6 7 6 3 2 6 7 4 5 4 2 2 1 2 3 3 2 5 4 4 1 3 6 9 6 1 2 5 5 8
14 15 16 17 17 16 15 13 12 10 10 10 9 10 11 12 11 13 13 13 10 8 10 23 19 20 17 17 16 5 2 4 2 3 1 2 2 3 1 3 4 2 4 3 6 5 5 4 9 15 12 10 12 13
15 16 16 17 17 17 16 14 12 11 10 11 10 9 10 12 11 12 12 13 14 7 16 7 2 7 13 12 8 7 4 4 3 9 3 2 3 2 2 4 2 3 1 1 4 3 6 13 17 14 11 10 11 16
15 16 17 16 17 16 15 13 12 11 10 10 10 10 9 12 10 12 13 10 8 6 4 7 12 7 7 8 12 15 14 13 14 14 8 3 3 7 3 4 3 5 2 4 5 10 19 14 11 11 15 17 14 13
15 17 18 17 17 17 15 13 12 11 10 9 10 9 10 11 9 13 11 6 1 4 4 15 15 3 1 4 8 12 21 21 18 7 3 4 5 2 4 1 4 15 7 4 6 13 12 12 20 19 19 19 14 15
16 17 18 16 16 17 15 13 12 11 10 9 9 9 10 10 9 11 3 1 2 4 5 4 9 5 2 6 9 8 11 13 17 7 6 7 11 7 3 4 12 25 27 30 17 17 17 26 31 28 30 24 21 19
17 17 17 16 15 15 15 14 12 10 8 6 7 8 10 9 8 6 3 2 5 5 3 6 8 5 10 11 7 7 8 9 8 6 5 6 8 9 2 14 13 27 27 30 35 36 27 32 28 29 25 23 24 22
17 17 16 16 15 14 14 12 8 5 5 5 7 8 8 10 11 5 2 8 8 4 3 2 5 7 4 5 5 4 4 4 4 4 3 4 3 5 4 7 13 14 17 17 14 17 21 25 28 27 25 22 22 25
15 16 15 14 14 12 11 8 3 4 6 7 5 5 5 2 1 1 5 5 8 5 3 3 2 4 5 3 4 3 3 2 2 3 4 2 2 4 3 6 14 18 15 21 24 23 22 20 20 19 19 18 19 17
14 15 15 13 10 10 10 3 3 4 5 3 2 1 2 1 1 7 2 3 4 3 4 5 5 4 3 2 3 3 1 2 2 3 4 3 3 5 9 18 23 22 20 21 22 26 25 24 20 17 19 16 17 18
13 15 16 11 6 9 6 2 1 1 1 2 1 1 2 3 3 2 2 3 4 3 6 7 10 4 4 2 3 1 2 2 2 3 1 2 2 2 20 28 26 22 22 22 23 26 27 25 28 27 22 21 20 18
14 16 14 6 7 7 4 2 2 4 3 2 3 6 4 3 3 2 3 3 4 4 5 6 8 11 5 5 2 2 2 1 4 3 2 2 3 14 27 28 24 30 26 25 24 25 25 25 22 21 22 21 20 21
15 15 10 6 6 5 5 3 4 3 3 2 2 3 4 3 2 4 4 3 3 5 8 10 5 5 6 6 2 2 3 4 4 2 2 2 12 24 27 24 24 22 22 23 23 20 21 20 18 15 13 13 19 21
14 10 4 3 5 6 6 6 5 3 2 3 4 3 4 4 4 5 5 4 8 9 15 14 7 9 5 4 3 2 3 1 2 2 3 4 16 24 26 22 26 21 20 22 26 26 17 18 22 19 15 15 18 21
14 5 5 4 3 3 1 3 4 4 3 4 3 4 6 12 12 10 16 18 21 15 10 4 2 4 1 2 2 1 1 3 3 3 3 10 18 21 25 24 18 16 20 19 27 26 29 11 12 15 16 18 18 17
8 4 8 6 3 1 5 6 5 5 3 4 7 4 9 4 12 9 11 15 4 9 4 2 1 0 3 3 2 4 4 5 4 3 9 13 17 19 22 20 17 14 14 16 23 22 20 25 14 3 7 6 7 8
6 6 7 7 5 7 9 4 4 5 5 5 8 15 21 19 17 21 18 18 7 5 1 2 2 7 3 1 2 4 4 4 7 10 12 11 15 17 18 18 15 14 13 11 18 24 18 18 30 26 22 15 11 9
6 9 9 8 7 7 2 5 4 5 7 12 8 16 15 18 20 21 15 9 6 3 4 4 2 2 3 3 3 4 7 8 8 9 8 11 11 12 12 14 19 19 16 4 12 15 22 24 12 23 26 22 20 17
5 12 10 8 7 6 3 5 7 5 11 12 17 22 21 22 20 15 9 8 7 7 4 2 1 3 4 7 6 9 9 8 7 9 11 10 9 8 10 11 13 16 16 6 11 13 16 19 22 19 16 16 12 11
5 8 12 14 9 4 4 5 7 7 6 5 11 16 10 8 8 5 8 6 7 4 4 3 4 4 6 7 8 10 8 6 8 10 10 8 6 6 7 10 9 11 12 14 13 12 13 12 15 15 14 13 12 10
3 4 6 9 8 8 6 5 6 8 9 7 10 10 7 8 9 6 5 5 5 5 4 6 7 5 4 4 7 11 9 8 8 9 8 7 6 4 3 6 7 10 10 11 12 14 16 17 14 12 13 12 9 9
6 7 3 6 4 5 7 8 7 8 6 10 16 12 4 3 5 4 3 5 3 1 3 5 7 5 3 6 7 5 3 4 5 5 3 1 3 2 1 2 4 6 8 9 11 10 9 11 12 13 13 14 12 10
4 4 3 5 5 5 6 7 6 5 3 4 4 2 2 3 1 4 2 3 1 3 4 5 4 3 2 4 3 1 1 2 4 3 2 1 2 1 2 3 5 7 8 7 7 7 5 8 8 10 12 12 12 10
6 4 4 4 8 5 4 4 6 5 3 2 2 3 2 1 0 3 2 3 3 11 12 12 10 6 3 3 5 7 8 8 7 6 5 5 4 4 3 5 6 7 9 6 5 6 6 5 6 4 6 7 8 8
3 5 4 5 5 4 3 3 4 1 3 2 2 3 2 4 2 1 2 3 12 16 13 13 10 4 2 2 0 2 3 5 6 6 5 3 3 2 1 1 2 4 4 6 6 5 6 7 6 5 5 5 4 6
4 6 8 5 4 5 4 3 3 5 2 2 5 1 3 3 1 4 4 5 16 16 15 15 13 9 7 7 5 1 2 2 2 3 3 2 2 3 3 6 6 7 4 3 1 2 3 3 3 3 5 5 3 3
3 6 8 9 7 5 5 7 7 2 3 1 1 1 1 2 3 4 4 8 11 16 15 12 8 6 3 3 4 5 4 5 4 6 4 6 4 3 2 3 1 2 5 2 2 4 3 2 2 3 1 1 2 1
9 5 6 4 7 9 4 4 3 1 1 1 3 1 2 2 3 2 4 7 7 10 10 10 9 10 9 6 4 3 5 7 9 7 7 3 2 3 3 3 3 1 4 4 0 3 6 6 6 4 1 2 2 4
7 8 6 9 8 7 8 7 4 5 5 4 3 3 4 3 2 2 4 9 14 13 9 7 8 9 8 7 8 8 8 6 6 7 6 9 6 5 6 5 4 4 3 4 3 3 1 2 1 1 3 3 5 8
7 11 6 5 4 5 6 6 6 9 9 7 5 4 4 4 3 9 10 12 13 14 13 9 10 10 8 8 9 9 7 7 7 8 8 7 7 7 7 7 2 1 2 1 2 1 4 3 1 1 3 3 4 4
5 5 6 6 5 11 14 9 7 9 6 5 6 7 4 1 5 15 11 12 11 12 13 13 13 14 15 13 13 13 8 8 7 8 9 10 7 5 3 6 5 5 3 4 2 4 3 2 3 4 4 5 3 4
9 13 7 3 7 10 5 5 3 3 5 5 4 4 3 2 2 6 18 16 13 13 10 11 13 13 14 18 15 16 10 9 11 8 6 6 8 8 6 5 6 6 4 4 5 4 4 3 3 3 2 4 5 5
5 7 7 6 3 1 2 4 1 1 3 5 3 5 7 3 4 3 4 13 19 16 12 12 11 11 8 5 12 8 8 7 9 11 7 6 6 8 10 5 9 7 4 2 4 5 3 6 5 4 2 3 6 6
Wind_Direction
321 326 329 331 330 331 330 319 308 293 287 297 319 333 343 344 354 7 9 1 357 309 296 273 257 237 252 231 196 319 338 345 1 46 49 298 240 283 339 276 216 189 198 225 220 218 275 339 356 13 157 228 277 320
315 321 326 329 328 327 326 319 311 302 283 278 293 313 330 334 331 346 352 344 322 298 283 297 278 269 271 266 256 271 266 295 279 63 9 344 340 342 144 268 341 268 199 225 181 222 207 243 293 303 287 248 261 287
311 318 322 325 324 323 323 318 311 303 293 271 272 291 318 327 319 327 333 335 344 323 311 295 253 241 285 280 240 225 242 237 277 336 231 214 252 140 252 250 283 296 209 264 12 297 250 280 296 292 297 287 281 275
306 313 313 318 318 317 318 314 309 303 293 273 264 270 302 322 313 320 323 329 349 328 301 279 304 305 269 246 254 261 262 264 284 287 233 205 194 202 226 242 196 227 322 224 256 285 288 287 295 271 306 295 312 309
302 309 310 316 316 317 318 311 304 298 286 271 258 267 294 312 308 320 314 302 264 354 288 293 322 157 358 297 317 267 245 249 254 234 190 232 213 205 232 31 234 232 228 198 249 259 261 278 310 307 296 288 289 304
303 305 308 311 313 313 313 307 301 297 289 267 256 267 291 306 310 324 353 124 39 332 314 309 314 279 286 312 305 278 248 260 227 223 221 223 228 211 248 240 249 260 265 261 262 273 266 290 295 288 284 285 288 293
301 304 305 309 310 308 309 305 297 291 282 264 260 277 294 292 301 292 274 254 293 326 279 293 295 302 313 309 293 289 257 257 247 244 233 236 230 221 223 264 279 279 277 279 280 284 283 279 271 274 284 282 287 294
302 304 307 310 307 305 313 311 299 280 261 266 278 288 286 295 301 297 293 255 261 262 259 278 277 311 340 307 310 317 292 280 241 256 266 231 251 219 248 259 297 318 321 310 319 316 289 290 286 283 285 281 281 288
304 304 305 308 303 301 311 307 278 263 279 285 280 292 306 343 140 312 309 298 227 237 270 237 259 267 316 291 291 306 318 319 302 245 238 195 203 231 236 324 328 323 311 307 319 314 304 304 295 279 275 281 268 272
307 312 314 309 306 306 312 276 266 292 300 287 265 174 257 244 161 321 309 160 210 231 236 250 243 265 277 310 308 320 316 262 307 255 292 214 251 276 343 334 328 322 310 299 302 309 313 295 290 272 271 265 277 286
308 310 313 311 301 305 289 222 295 138 120 116 145 204 22 334 308 244 227 212 197 240 225 238 228 243 250 184 239 242 291 279 275 281 279 271 270 257 340 331 324 321 314 303 291 290 292 286 279 279 267 270 272 270
312 313 314 299 288 285 221 220 241 199 219 210 262 273 264 232 232 250 219 171 217 241 218 212 240 219 235 220 210 202 248 258 254 318 268 263 260 328 330 327 328 334 326 315 301 290 288 282 265 272 272 266 258 268
309 314 319 288 271 229 206 244 252 226 250 247 208 214 204 207 218 211 215 238 237 217 224 218 223 205 188 211 211 180 238 232 325 235 262 278 296 321 331 334 334 321 337 335 325 314 287 274 257 259 260 259 256 264
307 313 305 278 288 267 252 246 242 230 230 223 210 261 196 215 226 205 209 211 233 247 258 258 238 193 173 158 191 230 248 335 282 299 264 271 306 329 334 341 328 343 350 356 5 352 310 269 249 248 250 260 254 255
316 278 214 168 85 60 110 230 214 233 236 237 234 239 222 229 247 253 267 262 272 270 268 254 231 202 174 189 189 271 20 336 237 243 237 296 323 330 337 344 349 345 352 360 2 356 357 274 241 239 248 256 259 259
310 199 176 166 165 16 328 298 252 224 242 235 233 259 247 258 275 267 278 256 291 228 258 320 160 160 241 168 200 184 176 222 245 225 292 316 327 332 339 345 355 338 344 344 0 3 21 58 85 142 231 199 180 190
270 185 196 216 248 304 309 250 205 223 234 233 244 241 252 273 274 283 293 287 260 319 255 233 242 219 133 188 232 185 212 226 256 293 312 317 327 336 341 351 343 323 322 334 3 17 38 49 61 87 85 91 115 105
239 193 208 239 271 314 276 205 237 239 242 242 244 259 248 258 273 286 288 263 251 234 202 218 173 206 212 208 240 236 251 292 318 307 300 311 325 335 341 354 3 1 350 304 355 33 45 62 50 42 60 72 73 67
257 210 210 243 272 314 246 225 221 256 243 254 263 271 274 278 279 268 247 229 266 240 265 208 156 217 237 215 242 273 280 288 306 305 304 295 314 328 346 350 360 14 25 20 27 33 34 57 81 80 68 66 63 69
254 221 215 234 249 267 267 244 224 252 261 258 270 278 277 256 264 249 249 247 207 189 205 211 218 238 247 289 279 282 287 288 297 305 307 293 295 319 343 13 6 9 20 27 28 31 29 42 57 56 55 68 75 93
162 181 199 225 239 233 266 257 243 253 269 259 275 281 278 256 252 263 223 203 195 198 225 234 269 269 263 281 289 290 288 290 299 300 295 309 303 285 320 22 19 30 35 27 19 27 42 47 43 34 34 37 41 47
178 165 181 210 242 237 258 241 246 296 278 267 285 280 236 257 279 262 238 200 199 100 233 272 242 227 299 309 308 299 300 311 316 307 287 282 9 26 317 26 18 26 28 35 38 31 43 48 46 44 43 47 46 60
196 190 222 229 243 234 256 235 235 242 236 264 293 258 193 235 270 313 293 335 100 118 176 189 184 153 64 26 45 82 36 39 36 66 78 65 340 41 99 50 22 27 30 31 36 34 48 54 51 46 45 47 50 59
185 219 236 234 216 257 263 243 227 253 253 284 280 276 195 210 253 43 315 304 177 170 160 146 143 133 117 120 107 86 75 69 66 64 64 55 68 87 56 34 49 42 26 19 32 42 45 34 15 27 33 45 58 59
237 224 233 258 245 253 243 252 230 195 250 198 259 260 203 142 72 258 240 248 184 185 181 179 181 179 225 250 207 158 103 83 65 60 58 53 40 58 76 53 6 354 34 43 41 43 39 42 65 59 47 52 58 60
242 219 198 220 236 202 222 272 221 230 241 216 229 264 147 118 166 251 237 207 186 190 200 206 207 211 245 267 274 312 227 250 294 334 10 336 29 61 2 333 323 331 319 286 18 54 26 34 84 71 63 65 77 110
245 253 230 236 258 279 278 267 273 223 259 250 261 77 101 266 239 250 227 190 191 198 200 199 203 238 267 234 249 221 219 255 285 325 321 321 282 295 328 355 346 14 11 338 300 327 10 6 271 239 202 94 44 16
236 250 204 226 223 244 239 265 259 253 255 191 152 198 222 241 255 280 217 212 185 178 199 213 237 249 249 259 262 273 254 255 264 280 305 250 123 90 184 224 249 232 111 73 66 286 318 303 224 265 266 323 317 296
237 229 233 256 244 242 216 213 226 223 196 202 209 209 227 229 267 253 188 169 165 179 192 199 187 207 233 238 227 245 259 267 275 276 237 221 247 252 240 256 240 220 150 112 59 17 283 99 73 57 42 355 317 310
245 221 224 243 219 224 227 220 247 232 221 246 261 267 250 251 176 163 157 162 173 189 200 211 213 219 229 238 238 244 245 254 256 253 249 250 266 266 251 225 202 186 179 178 204 321 48 73 85 72 341 8 17 4
241 182 219 228 242 248 259 284 257 252 227 234 228 249 303 292 193 191 172 159 170 193 212 224 232 241 245 243 245 256 252 226 241 254 261 256 241 210 180 187 190 167 161 198 233 251 258 292 297 297 346 358 360 354
203 206 215 228 263 287 227 215 198 173 215 213 186 220 298 317 247 219 212 197 200 209 233 252 260 260 259 246 252 256 261 238 233 248 245 228 217 204 172 176 184 159 174 195 226 262 248 277 334 327 281 350 31 15
234 245 215 207 214 181 152 189 138 106 163 181 224 229 229 227 256 257 229 224 223 218 221 243 265 271 273 264 209 216 225 241 253 249 240 227 235 222 197 178 195 200 214 245 236 231 231 252 283 307 284 311 311 308